Tracking 28790 objects as of 18-Apr-2024
HD Live streaming from Space Station
objects crossing your sky now

YAOGAN-33

Track YAOGAN-33 now!
10-day predictions


NORAD ID: 47302
Int'l Code: 2020-103A
Perigee: 700.3 km
Apogee: 702.4 km
Inclination: 98.1 °
Period: 98.7 minutes
Semi major axis: 7072 km
RCS: Unknown
Launch date: December 27, 2020
Source: People's Republic of China (PRC)
Launch site: Jiuquan Satellite Launch Center, China (JSC)
Your satellite tracking list
Your tracking list is empty




NASA's NSSDC Master Catalog

Two Line Element Set (TLE):
1 47302U 20103A   24109.56216582  .00001609  00000-0  34733-3 0  9992
2 47302  98.1380   0.3253 0001539  86.3698 273.7678 14.59677177176163
Source of the keplerian elements: AFSPC